This is the latest recevied weather packets stored in our database for station/object K6POO-1. If no packets are shown the sender has not sent any weather packets the latest 10 day(s).
| Time | Temp. | Humidity | Pressure | Rain* | Wind** | Luminosity | Snow |
|---|---|---|---|---|---|---|---|
| 1777909051 | 15° C | 75% | 1015.2 hPa | 0 mm | - | 196 W/m² | - |
| 1777908748 | 15° C | 74% | 1015.4 hPa | 0 mm | - | 199 W/m² | - |
| 1777908445 | 15° C | 76% | 1015.3 hPa | 0 mm | - | 194 W/m² | - |
| 1777908142 | 15° C | 76% | 1015.5 hPa | 0 mm | - | 161 W/m² | - |
| 1777907838 | 14.44° C | 76% | 1015.2 hPa | 0 mm | - | 131 W/m² | - |
| 1777907534 | 14.44° C | 76% | 1015.2 hPa | 0 mm | - | 90 W/m² | - |
| 1777907230 | 14.44° C | 77% | 1015.1 hPa | 0 mm | - | 74 W/m² | - |
| 1777906927 | 14.44° C | 77% | 1015.2 hPa | 0 mm | - | 60 W/m² | - |
| 1777906625 | 14.44° C | 77% | 1015.1 hPa | 0 mm | - | 57 W/m² | - |
| 1777906320 | 14.44° C | 77% | 1015.4 hPa | 0 mm | - | 61 W/m² | - |
| 1777906017 | 14.44° C | 78% | 1015.3 hPa | 0 mm | - | 55 W/m² | - |
| 1777905713 | 14.44° C | 78% | 1015.2 hPa | 0 mm | - | 226 W/m² | - |
| 1777905410 | 14.44° C | 80% | 1015.1 hPa | 0 mm | - | 220 W/m² | - |
| 1777905108 | 13.89° C | 81% | 1015.2 hPa | 0 mm | - | 199 W/m² | - |
| 1777904805 | 13.89° C | 82% | 1015.1 hPa | 0 mm | - | 180 W/m² | - |
| 1777904502 | 13.89° C | 82% | 1015.2 hPa | 0 mm | - | 161 W/m² | - |
| 1777904198 | 13.89° C | 83% | 1015.2 hPa | 0 mm | - | 142 W/m² | - |
| 1777903896 | 13.89° C | 85% | 1015.3 hPa | 0 mm | - | 123 W/m² | - |
| 1777903593 | 13.33° C | 87% | 1015.2 hPa | 0 mm | - | 104 W/m² | - |
| 1777903288 | 12.78° C | 88% | 1015.2 hPa | 0 mm | - | 89 W/m² | - |
| 1777902985 | 12.22° C | 89% | 1015.1 hPa | 0 mm | - | 76 W/m² | - |
| 1777902682 | 12.22° C | 89% | 1015.1 hPa | 0 mm | - | 42 W/m² | - |
| 1777902379 | 12.22° C | 89% | 1015 hPa | 0 mm | - | 32 W/m² | - |
| 1777902076 | 12.22° C | 89% | 1015.1 hPa | 0 mm | - | 22 W/m² | - |
| 1777901774 | 12.22° C | 89% | 1015 hPa | 0 mm | - | 19 W/m² | - |
* Rain latest hour (hover to see other rain measurements)
** Current wind speed in m/s (hover to see current wind gust speed)